Location: *
(41.2833°S, 165.2667°W)
Time: 01:15:23
(UTC+00:00)

Daily predictions for brighter satellites

Satellite Brightness Start Highest point End
(mag) Time Altitude Azimuth Time Altitude Azimuth Time Altitude Azimuth
Thor Agena Rocket 3.9 03:59:27 10° SSE 04:04:19 43° E 04:09:06 10° N
BREEZE-M DEB (TANK) 3.2 04:01:21 10° WSW 04:06:14 38° SSE 04:08:34 10° E
USA 267 4.0 04:01:36 10° ESE 04:07:42 38° NE 04:13:44 10° NNW
Cosmos 1812 Rocket 4.1 04:04:03 10° S 04:08:06 35° ESE 04:12:06 10° NE
Cosmos-2242 3.3 04:07:31 10° SSW 04:11:53 74° W 04:16:10 10° N
CBERS-1 4.2 04:10:43 10° SSE 04:15:47 54° E 04:20:47 10° N
USA 306 3.6 04:12:17 10° SW 04:15:53 30° SSE 04:19:24 10° E
Lacrosse 5 rocket 1.8 04:13:41 10° NNW 04:16:45 33° NE 04:19:48 10° ESE
Cosmos 1315 Rocket 2.8 04:13:52 10° S 04:17:51 90° WSW 04:21:47 10° N
CZ-4C R/B 3.4 04:12:01 10° NNW 04:20:42 55° ENE 04:28:09 10° SE
Cosmos 1818 4.3 04:16:10 10° SSW 04:21:01 32° SE 04:25:51 10° ENE
ACS3 Solar Sail 1.9 04:15:36 10° SSE 04:21:57 69° E 04:28:07 10° N
SMAP 4.5 04:19:28 10° SE 04:22:53 20° E 04:26:16 10° NE
MOS 1-B Rocket 3.9 04:18:09 10° SSE 04:23:49 68° ENE 04:29:40 10° N
Cosmos 2221 2.9 04:21:25 10° S 04:25:29 40° ESE 04:29:27 10° NNE
Cosmos 2151 3.3 04:24:09 10° NNE 04:28:04 44° E 04:32:03 10° SSE
Cosmos 1743 4.3 04:27:27 10° ENE 04:29:02 13° E 04:29:20 13° E
Cosmos 2227 Rocket 3.8 04:26:52 10° SSE 04:29:41 14° SE 04:31:20 12° ESE
Atlas Centaur 2 3.5 04:28:44 10° NW 04:31:24 18° N 04:34:21 10° NE
SKYMED 2 4.2 04:29:14 10° N 04:33:33 62° W 04:37:57 10° SSW
Cosmos 1825 Rocket 4.0 04:30:48 10° NNE 04:34:59 42° E 04:39:15 10° SSE
CZ-2D R/B 4.0 04:33:07 12° SE 04:35:36 26° E 04:38:27 10° NNE
Cosmos 1758 Rocket 4.5 04:36:11 10° NNW 04:40:35 53° W 04:45:03 10° S
Cosmos 2112 Rocket 4.0 04:35:43 10° SSW 04:41:09 77° ESE 04:46:26 10° NNE
USA 234 4.1 04:37:12 13° ESE 04:42:10 32° SSE 04:47:53 10° SW
SAR-Lupe-4 4.2 04:39:43 10° S 04:43:17 58° WSW 04:46:48 10° NNW
Cosmos 1602 Rocket 4.0 04:41:55 10° NNW 04:46:18 66° W 04:50:49 10° S
IRS-1C 4.4 04:43:21 10° SSE 04:48:33 47° E 04:53:40 10° N
Cosmos 1697 Rocket 3.7 04:46:22 10° NNE 04:50:59 26° ENE 04:53:30 19° ESE
Cosmos 494 Rocket 3.9 04:45:52 10° SSW 04:51:00 63° ESE 04:56:05 10° NNE
Cosmos 44 3.9 04:50:00 10° N 04:55:00 44° ENE 04:58:17 20° SE
Okean 1-7 Rocket 4.0 04:51:25 10° NNW 04:55:58 68° W 05:00:34 10° S
Cosmos 1656 3.6 04:54:30 10° NNW 04:59:56 89° ENE 05:05:20 11° SSE
BREEZE-M DEB (TANK) 2.4 04:57:42 10° SW 05:00:53 47° SSE 05:01:18 41° ESE
BREEZE-M DEB (TANK) 2.3 05:05:58 10° WNW 05:09:18 44° SW 05:09:58 34° S
CORIOLIS 4.2 05:04:24 10° SSE 05:09:49 58° E 05:15:11 10° N
NOSS 3-4 (A) 4.4 05:04:34 10° SW 05:11:14 51° WNW 05:16:55 10° N
NOSS 3-4 (C) 4.4 05:04:40 10° SW 05:11:20 52° WNW 05:17:01 10° N
SL-4 R/B 3.9 05:09:06 10° WSW 05:12:22 28° NW 05:15:46 10° NNE
ARIANE 5 R/B 2.5 05:07:26 10° SSE 05:12:46 79° ENE 05:18:00 10° N
Meteor 1-20 Rocket 4.1 05:07:42 10° N 05:13:19 81° E 05:18:54 10° SSE
BREEZE M DEB (TANK) 1.6 05:12:12 10° NW 05:14:42 51° NNE 05:14:42 51° NNE
BlueWalker 3 1.8 05:14:36 10° NW 05:18:16 64° NE 05:18:59 51° E
Cosmos 2184 Rocket 4.0 05:12:01 10° N 05:18:19 69° E 05:24:38 10° SSE
Meteor 1-19 Rocket 4.3 05:14:58 10° S 05:21:04 86° ESE 05:27:09 10° N
Cosmos 2154 Rocket 4.0 05:15:17 10° N 05:21:33 63° E 05:27:53 10° SSE
YAOGAN 11 4.0 05:17:17 10° NNE 05:21:45 69° ESE 05:26:13 10° S
IRAS Rocket 4.3 05:18:58 10° SSE 05:24:38 85° WSW 05:30:16 10° NNW
Meteor 2-4 Rocket 4.1 05:20:26 10° S 05:25:39 38° ESE 05:30:56 10° NE
AQUARIUS 4.2 05:25:55 41° SE 05:27:06 54° E 05:31:27 10° N
IGS 5A 3.3 05:24:25 20° S 05:27:11 85° W 05:31:13 10° NNW
Cosmos 1076 Rocket 3.4 05:24:00 10° N 05:28:14 89° E 05:30:55 23° S
Nadezhda 3 Rocket 4.0 05:23:17 10° S 05:29:26 57° E 05:35:32 10° NNE
Cosmos 1953 Rocket 3.5 05:25:14 10° N 05:29:33 82° W 05:32:50 17° S
SJ-12 4.3 05:30:22 18° S 05:33:09 58° WSW 05:36:57 10° NNW
Radarsat 4.4 05:28:55 15° SSE 05:33:22 83° ENE 05:38:35 10° NNW
SJ-6F 4.3 05:32:24 35° SSE 05:34:04 90° SSE 05:38:09 10° NNW
Cosmos 1867 3.5 05:30:31 10° NNW 05:35:49 64° ENE 05:37:12 47° ESE
SL-08 R/B 3.1 05:35:45 10° NNE 05:40:19 66° ESE 05:44:59 10° S
ATLAS 2AS CENTAUR R/B 4.3 05:37:25 10° SSW 05:42:06 18° SSE 05:42:06 18° SSE
Meteor 1-27 Rocket 3.7 05:37:02 10° S 05:42:50 89° W 05:48:27 10° N
Meteor 1-5 Rocket 4.0 05:37:52 10° N 05:43:11 67° E 05:44:52 43° SSE
USA 306 3.3 05:42:12 10° WSW 05:46:08 51° NW 05:46:41 46° NNW
Cosmos 2297 Rocket 2.2 05:40:35 10° SSW 05:46:19 83° WNW 05:52:00 10° NNE
Cosmos 1610 Rocket 4.3 05:40:08 10° N 05:46:20 71° E 05:50:50 20° SSE
Gbstr 26 Del rocket 4.2 05:43:22 10° W 05:46:53 26° SSW 05:47:01 26° SSW
USA 267 3.5 05:47:38 32° SSE 05:50:52 64° SW 05:57:22 10° WNW
ISS -2.0 05:47:40 10° NW 05:49:28 28° NNW 05:49:28 28° NNW
Lacrosse 5 rocket 2.8 05:51:17 10° W 05:53:47 24° SW 05:53:47 24° SW
Spot 4 Rocket 3.9 05:54:46 66° ENE 05:54:46 66° ENE 05:59:40 10° N
Cosmos 1125 Rocket 3.5 05:51:28 10° NNW 05:56:40 76° WSW 05:58:13 46° S
SMAP 4.2 05:56:48 15° S 06:00:24 43° WSW 06:04:49 10° NW
Cosmos 1743 4.2 05:59:44 10° NW 06:02:46 30° WSW 06:02:46 30° WSW
ACS3 Solar Sail 4.1 06:00:07 10° SSW 06:04:36 21° WSW 06:09:00 10° WNW
Cosmos 1346 Rocket 4.0 06:03:15 10° NNW 06:05:58 38° WNW 06:05:58 38° WNW
Cosmos 2327 Rocket 4.4 06:02:32 10° N 06:08:49 77° E 06:10:00 60° SSE
CZ-4C R/B 3.9 06:01:13 10° WNW 06:09:25 44° SW 06:13:41 23° S
SL-19 R/B 4.4 06:10:21 45° SSE 06:12:33 89° WSW 06:18:45 10° NNW
Cosmos 1980 Rocket 3.1 06:08:10 10° N 06:11:39 37° N 06:11:39 37° N
BREEZE-M DEB (TANK) 4.3 06:05:25 10° NW 06:13:38 63° N 06:13:38 63° N
CZ-3 Stage 3 4.4 06:05:53 10° NW 06:14:30 19° N 06:16:23 18° NNE
Cosmos 2227 Rocket 2.6 06:08:58 10° SSW 06:13:12 51° S 06:13:12 51° S
Meteor 2-13 Rocket 4.4 06:09:52 10° S 06:16:08 84° W 06:22:18 10° N
Iridium 4 Rocket 3.8 06:12:00 10° NNW 06:16:57 59° W 06:17:08 58° WSW
Atlas Centaur 2 3.8 06:15:54 10° NW 06:18:26 17° NNW 06:18:26 17° NNW
Cosmos 2263 Rocket 4.2 06:16:44 10° SSW 06:17:55 16° S 06:17:55 16° S
USA 234 3.1 06:24:34 77° SE 06:24:34 77° SE 06:31:12 10° SW
Cosmos 1697 Rocket 3.6 06:29:15 10° NW 06:34:39 44° WSW 06:35:16 43° SW
